Location: Newark
(39.5667°N, 8.9833°E)
Time: 12:51:14
(UTC+00:00)

N. Korean satellite - Visible Passes

Search period start: 22 September 2019 00:00
Search period end: 02 October 2019 00:00
Orbit: 455 x 509 km, 97.2° (Epoch: 21 September)

Date Brightness Start Highest point End Pass type
(mag) Time Alt. Az. Time Alt. Az. Time Alt. Az.
25 Sep 9.8 04:29:31 10° NE 04:31:43 16° E 04:33:54 10° SE visible
26 Sep 10.7 17:47:37 10° W 17:48:02 10° W 17:48:27 10° W visible
28 Sep 9.1 04:46:30 10° NE 04:49:29 27° E 04:52:28 10° SSE visible
29 Sep 10.0 04:22:25 10° ENE 04:24:06 13° E 04:25:47 10° ESE visible
30 Sep 10.3 17:38:50 10° WSW 17:40:25 13° W 17:41:59 10° WNW visible
